Weather History for West Point, VA

Change the Weather History Date:

Wednesday, February 19, 2014

  Actual Average (KRIC) Record (KRIC)
Temperature  
Mean Temperature 52 °F 42 °F  
Max Temperature 71 °F 52 °F 78 °F (1961)
Min Temperature 34 °F 31 °F 10 °F (1979)
Degree Days  
Heating Degree Days 12 23  
Month to date heating degree days 475  
Since 1 July heating degree days 2736  
Cooling Degree Days 0 0  
Month to date cooling degree days 0  
Year to date cooling degree days 0  
Growing Degree Days 2 (Base 50)    
Moisture  
Dew Point 38 °F    
Average Humidity 50    
Maximum Humidity 80    
Minimum Humidity 25    
Precipitation  
Precipitation 0.00 in 0.09 in 1.28 in (1927)
Month to date precipitation 1.84  
Year to date precipitation 4.88  
Snow  
Snow 0.00 in 0.10 in 4.40 in (1972)
Month to date snowfall 2.5  
Since 1 July snowfall 8.7  
Snow Depth -    
Sea Level Pressure  
Sea Level Pressure 29.95 in    
Wind  
Wind Speed 7 mph (SSW)    
Max Wind Speed 21 mph    
Max Gust Speed 32 mph    
Visibility 10 miles    
Events      
T = Trace of Precipitation, MM = Missing Value Source: NWS Daily Summary

Daily Weather History Graph

Daily Weather History Graph

Search for Another Location

Airport:

Trip Planner

Search our weather history database for the weather conditions in past years. The results will help you decide how hot, cold, wet, or windy it might be!

Date:

Astronomy

Feb. 19, 2014 Rise Set
Actual Time 6:51 AM EST 5:50 PM EST
Civil Twilight 6:24 AM EST 6:17 PM EST
Nautical Twilight 5:54 AM EST 6:47 PM EST
Astronomical Twilight 5:24 AM EST 7:18 PM EST
Moon 10:35 PM EST (2/19) 9:02 AM EST (2/19)
Length of Visible Light 11h 52m
Length of Day
10h 59m
Waning Gibbous, 80% of the Moon is Illuminated
Feb 19
Waning Gibbous
Feb 22
Last Quarter
Mar 1
New
Mar 8
First Quarter
Mar 16
Full

Hourly Weather History & Observations

Time (EST) Temp. Windchill Dew Point Humidity Pressure Visibility Wind Dir Wind Speed Gust Speed Precip Events Conditions
12:15 AM 34.9 °F - 25.2 °F 68% 30.11 in 10.0 mi Calm Calm - N/A   Clear
12:55 AM 35.4 °F - 26.4 °F 70% 30.11 in 10.0 mi Calm Calm - N/A   Clear
1:15 AM 36.1 °F - 28.4 °F 73% 30.11 in 10.0 mi Calm Calm - N/A   Clear
1:35 AM 38.5 °F - 27.0 °F 63% 30.10 in 10.0 mi Calm Calm - N/A   Clear
1:55 AM 42.3 °F - 26.2 °F 53% 30.10 in 10.0 mi Calm Calm - N/A   Clear
2:15 AM 45.0 °F 43.5 °F 23.4 °F 43% 30.11 in 10.0 mi SSE 3.5 mph - N/A   Clear
2:35 AM 40.5 °F - 24.8 °F 54% 30.11 in 10.0 mi Calm Calm - N/A   Clear
2:55 AM 42.1 °F - 24.6 °F 50% 30.09 in 10.0 mi Calm Calm - N/A   Clear
3:15 AM 37.9 °F 35.5 °F 26.1 °F 62% 30.07 in 10.0 mi SE 3.5 mph - N/A   Clear
3:35 AM 45.5 °F 41.8 °F 25.5 °F 46% 30.05 in 10.0 mi SSE 6.9 mph - N/A   Clear
3:55 AM 46.8 °F - 26.8 °F 46% 30.03 in 10.0 mi SSE 5.8 mph - N/A   Clear
4:15 AM 46.8 °F - 26.6 °F 45% 30.03 in 10.0 mi SSE 6.9 mph - N/A   Clear
4:35 AM 47.1 °F - 26.6 °F 45% 30.01 in 10.0 mi SSE 5.8 mph - N/A   Clear
4:55 AM 46.8 °F - 28.2 °F 49% 30.01 in 10.0 mi SSE 6.9 mph - N/A   Clear
5:15 AM 46.6 °F - 28.9 °F 50% 29.99 in 10.0 mi SSE 6.9 mph - N/A   Clear
5:35 AM 48.0 °F - 29.8 °F 49% 29.99 in 10.0 mi SSE 6.9 mph - N/A   Clear
5:55 AM 46.9 °F - 31.3 °F 55% 29.99 in 10.0 mi SSE 5.8 mph - N/A   Clear
6:15 AM 47.3 °F - 32.2 °F 56% 29.98 in 10.0 mi SE 5.8 mph - N/A   Scattered Clouds
6:35 AM 48.2 °F - 33.4 °F 57% 29.96 in 10.0 mi SE 5.8 mph - N/A   Mostly Cloudy
6:55 AM 48.2 °F - 34.7 °F 60% 29.95 in 10.0 mi SE 6.9 mph - N/A   Scattered Clouds
7:15 AM 49.3 °F - 36.1 °F 61% 29.95 in 10.0 mi SSE 9.2 mph - N/A   Mostly Cloudy
7:35 AM 50.0 °F - 37.6 °F 62% 29.93 in 10.0 mi SSE 9.2 mph - N/A   Mostly Cloudy
7:55 AM 51.3 °F - 39.4 °F 64% 29.93 in 10.0 mi SSE 10.4 mph - N/A   Mostly Cloudy
8:15 AM 51.1 °F - 41.7 °F 70% 29.93 in 10.0 mi SSE 9.2 mph - N/A   Mostly Cloudy
8:35 AM 54.5 °F - 44.6 °F 69% 29.94 in 10.0 mi SSW 8.1 mph - N/A   Overcast
8:55 AM 54.0 °F - 45.9 °F 74% 29.94 in 7.0 mi SW 6.9 mph - N/A   Mostly Cloudy
9:15 AM 54.0 °F - 47.3 °F 78% 29.91 in 10.0 mi South 4.6 mph - N/A   Mostly Cloudy
9:35 AM 54.5 °F - 48.6 °F 80% 29.92 in 10.0 mi South 4.6 mph - N/A   Mostly Cloudy
9:55 AM 57.0 °F - 49.6 °F 76% 29.91 in 10.0 mi SSW 9.2 mph - N/A   Mostly Cloudy
10:15 AM 59.0 °F - 50.0 °F 72% 29.91 in 10.0 mi SSW 12.7 mph 19.6 mph N/A   Scattered Clouds
10:35 AM 60.6 °F - 51.1 °F 71% 29.89 in 10.0 mi SSW 11.5 mph 18.4 mph N/A   Scattered Clouds
10:55 AM 62.1 °F - 51.1 °F 67% 29.89 in 10.0 mi SW 11.5 mph 18.4 mph N/A   Mostly Cloudy
11:15 AM 62.6 °F - 50.9 °F 66% 29.87 in 10.0 mi SSW 13.8 mph 20.7 mph N/A   Mostly Cloudy
11:35 AM 64.4 °F - 51.4 °F 63% 29.86 in 10.0 mi SW 17.3 mph 25.3 mph N/A   Scattered Clouds
11:55 AM 65.3 °F - 51.4 °F 61% 29.85 in 10.0 mi SW 17.3 mph 26.5 mph N/A   Scattered Clouds
12:15 PM 67.1 °F - 52.2 °F 59% 29.83 in 10.0 mi SW 18.4 mph 21.9 mph N/A   Scattered Clouds
12:35 PM 66.7 °F - 52.2 °F 59% 29.83 in 10.0 mi SW 15.0 mph 26.5 mph N/A   Mostly Cloudy
12:55 PM 66.6 °F - 52.5 °F 61% 29.81 in 10.0 mi SW 13.8 mph 17.3 mph N/A   Mostly Cloudy
1:15 PM 67.3 °F - 52.3 °F 59% 29.82 in 10.0 mi SW 18.4 mph 24.2 mph N/A   Mostly Cloudy
1:35 PM 66.6 °F - 52.5 °F 61% 29.81 in 10.0 mi SW 16.1 mph 21.9 mph N/A   Mostly Cloudy
1:55 PM 68.2 °F - 52.2 °F 56% 29.80 in 10.0 mi WSW 15.0 mph 25.3 mph N/A   Mostly Cloudy
2:15 PM 68.4 °F - 51.3 °F 54% 29.80 in 10.0 mi WSW 18.4 mph 26.5 mph N/A   Scattered Clouds
2:35 PM 69.1 °F - 51.1 °F 53% 29.79 in 10.0 mi WSW 13.8 mph 23.0 mph N/A   Scattered Clouds
2:55 PM 70.9 °F - 48.9 °F 46% 29.78 in 10.0 mi SW 19.6 mph 26.5 mph N/A   Clear
3:15 PM 70.7 °F - 45.3 °F 40% 29.79 in 10.0 mi WSW 16.1 mph 31.1 mph N/A   Clear
3:35 PM 71.1 °F - 42.4 °F 36% 29.79 in 10.0 mi WSW 19.6 mph 29.9 mph N/A   Clear
3:55 PM 70.7 °F - 41.7 °F 35% 29.79 in 10.0 mi WSW 19.6 mph 27.6 mph N/A   Clear
4:15 PM 70.9 °F - 39.2 °F 32% 29.80 in 10.0 mi WSW 15.0 mph 31.1 mph N/A   Clear
4:35 PM 70.9 °F - 37.6 °F 30% 29.81 in 10.0 mi WSW 20.7 mph 32.2 mph N/A   Clear
4:55 PM 70.9 °F - 38.3 °F 30% 29.83 in 10.0 mi WSW 15.0 mph 29.9 mph N/A   Clear
5:15 PM 68.9 °F - 40.1 °F 35% 29.84 in 10.0 mi WSW 15.0 mph 25.3 mph N/A   Clear
5:35 PM 68.5 °F - 40.8 °F 36% 29.85 in 10.0 mi WSW 11.5 mph - N/A   Mostly Cloudy
5:55 PM 67.5 °F - 40.5 °F 37% 29.86 in 10.0 mi WSW 15.0 mph 18.4 mph N/A   Scattered Clouds
6:15 PM 67.1 °F - 40.3 °F 38% 29.88 in 10.0 mi WSW 13.8 mph 19.6 mph N/A   Clear
6:35 PM 66.7 °F - 40.5 °F 38% 29.89 in 10.0 mi WSW 12.7 mph - N/A   Clear
6:55 PM 65.5 °F - 41.4 °F 41% 29.91 in 10.0 mi WSW 10.4 mph 16.1 mph N/A   Clear
7:15 PM 64.8 °F - 41.4 °F 42% 29.93 in 10.0 mi WSW 11.5 mph - N/A   Clear
7:35 PM 65.3 °F - 41.7 °F 42% 29.95 in 10.0 mi West 11.5 mph - N/A   Clear
7:55 PM 66.0 °F - 41.9 °F 41% 29.97 in 10.0 mi WNW 8.1 mph - N/A   Scattered Clouds
8:15 PM 65.5 °F - 41.7 °F 42% 29.99 in 10.0 mi NW 9.2 mph - N/A   Clear
8:35 PM 65.8 °F - 32.0 °F 28% 30.02 in 10.0 mi WNW 8.1 mph - N/A   Clear
8:55 PM 64.8 °F - 32.2 °F 30% 30.04 in 10.0 mi NW 4.6 mph - N/A   Clear
9:15 PM 62.2 °F - 32.2 °F 32% 30.06 in 10.0 mi NNW 4.6 mph - N/A   Clear
9:35 PM 61.3 °F - 29.5 °F 30% 30.07 in 10.0 mi NNW 3.5 mph - N/A   Clear
9:55 PM 59.7 °F - 28.0 °F 30% 30.08 in 10.0 mi Calm Calm - N/A   Clear
10:15 PM 55.9 °F - 30.4 °F 38% 30.09 in 10.0 mi Calm Calm - N/A   Clear
10:35 PM 57.4 °F - 25.0 °F 29% 30.11 in 10.0 mi Calm Calm - N/A   Clear
10:55 PM 55.0 °F - 25.3 °F 32% 30.12 in 10.0 mi Calm Calm - N/A   Clear
11:35 PM 55.8 °F - 20.5 °F 25% 30.14 in 10.0 mi Calm Calm - N/A   Clear
11:55 PM 53.4 °F - 22.5 °F 30% 30.16 in 10.0 mi NNE 3.5 mph - N/A   Clear